Location: Hurstbourne Priors
(51.2000°N, 1.3667°W)
Time: 13:10:22
(UTC+00:00)

Envisat - Visible Passes

Search period start: 08 March 2021 00:00
Search period end: 18 March 2021 00:00
Orbit: 764 x 766 km, 98.1° (Epoch: 07 March)

Date Brightness Start Highest point End Pass type
(mag) Time Alt. Az. Time Alt. Az. Time Alt. Az.
08 Mar 4.7 05:13:29 10° NNE 05:18:13 37° E 05:22:53 10° SSE visible
09 Mar 5.8 04:37:25 10° NE 04:41:01 19° E 04:44:35 10° SE visible
10 Mar 3.7 05:38:41 10° NNE 05:43:44 59° E 05:48:45 10° S visible
10 Mar 6.8 18:42:47 10° W 18:43:29 10° W 18:44:11 10° WNW visible
11 Mar 5.1 05:02:13 10° NNE 05:06:41 30° E 05:11:08 10° SSE visible
12 Mar 6.0 04:26:26 10° NE 04:29:26 16° E 04:32:25 10° ESE visible
13 Mar 4.2 05:27:19 10° NNE 05:32:16 48° E 05:37:10 10° S visible
14 Mar 5.4 04:50:59 10° NE 04:55:09 25° E 04:59:18 10° SSE visible
15 Mar 6.2 04:15:41 10° ENE 04:17:50 12° E 04:19:58 10° ESE visible
16 Mar 4.6 05:15:59 10° NNE 05:20:46 39° E 05:25:31 10° SSE visible
17 Mar 5.8 04:39:50 10° NE 04:43:36 20° E 04:47:20 10° SE visible
